AEE322 LGAV-LYBE

Flight info

Callsign AEE322
Flight time N/A
Altitude 34000
Route LGAV/03R N0456F340 DCT KRO UG33 KOROS UN133 PEREN UL863 EVIVI L863 OKANA DCT GAZON DCT LYBE/12L
Aircraft A320/M-SDE3/L

Departure

Time 2026-05-05 20:49
Airport Athens Eleftherios Venizelos International Airport (LGAV)

Arrival

Time N/A
Airport Belgrade Nikola Tesla Airport (LYBE)
Time Latitude Longitude Altitude Speed Heading
2026-05-05 20:30 37.93605 23.94839 301 ft 0 kts 307°
2026-05-05 20:41 37.93603 23.94843 301 ft 3 kts 307°
2026-05-05 20:41 37.93592 23.94861 302 ft 3 kts 308°
2026-05-05 20:42 37.93582 23.94878 301 ft 2 kts 308°
2026-05-05 20:42 37.93571 23.94895 301 ft 2 kts 293°
2026-05-05 20:42 37.93569 23.94915 303 ft 2 kts 223°
2026-05-05 20:42 37.93570 23.94917 303 ft 0 kts 221°
2026-05-05 20:44 37.93565 23.94913 302 ft 2 kts 213°
2026-05-05 20:44 37.93544 23.94897 301 ft 7 kts 211°
2026-05-05 20:44 37.93477 23.94859 302 ft 14 kts 180°
2026-05-05 20:44 37.93404 23.94950 304 ft 17 kts 126°
2026-05-05 20:45 37.93202 23.94857 300 ft 19 kts 217°
2026-05-05 20:45 37.93091 23.94752 301 ft 21 kts 217°
2026-05-05 20:45 37.92972 23.94639 302 ft 22 kts 216°
2026-05-05 20:46 37.92845 23.94518 304 ft 23 kts 217°
2026-05-05 20:46 37.92712 23.94391 302 ft 25 kts 217°
2026-05-05 20:46 37.92582 23.94285 305 ft 11 kts 178°
2026-05-05 20:46 37.92531 23.94337 308 ft 1 kts 129°
2026-05-05 20:47 37.92527 23.94343 306 ft 1 kts 128°
2026-05-05 20:47 37.92512 23.94368 307 ft 6 kts 127°
2026-05-05 20:47 37.92491 23.94435 309 ft 12 kts 89°
2026-05-05 20:47 37.92562 23.94525 306 ft 8 kts 38°
2026-05-05 20:48 37.92565 23.94528 306 ft 0 kts 37°
2026-05-05 20:48 37.92593 23.94554 305 ft 10 kts 36°
2026-05-05 20:48 37.92750 23.94704 303 ft 59 kts 37°
2026-05-05 20:49 37.93246 23.95173 294 ft 116 kts 37°
2026-05-05 20:49 37.94013 23.95901 282 ft 158 kts 37°
2026-05-05 20:49 37.94933 23.96770 719 ft 162 kts 36°
2026-05-05 20:49 37.95835 23.97632 1322 ft 163 kts 37°
2026-05-05 20:50 37.96747 23.98508 1899 ft 164 kts 36°
2026-05-05 20:50 37.97668 23.99391 2324 ft 175 kts 36°
2026-05-05 20:50 37.98679 24.00360 2590 ft 193 kts 36°
2026-05-05 20:50 37.99800 24.01443 2862 ft 211 kts 36°
2026-05-05 20:51 38.01036 24.02631 3107 ft 234 kts 36°
2026-05-05 20:51 38.02380 24.03922 3685 ft 245 kts 36°
2026-05-05 20:51 38.03744 24.05241 4529 ft 247 kts 37°
2026-05-05 20:51 38.05117 24.06567 5395 ft 248 kts 36°
2026-05-05 20:52 38.06489 24.07890 6329 ft 247 kts 36°
2026-05-05 20:52 38.07831 24.09249 7171 ft 248 kts 44°
2026-05-05 20:52 38.08794 24.11083 7947 ft 255 kts 66°
2026-05-05 20:52 38.09120 24.13359 8496 ft 275 kts 90°
2026-05-05 20:53 38.08667 24.15742 9118 ft 288 kts 106°
2026-05-05 20:53 38.07994 24.18155 9853 ft 292 kts 105°
2026-05-05 20:53 38.07315 24.20625 10325 ft 306 kts 105°
2026-05-05 20:53 38.06606 24.23316 10487 ft 327 kts 101°
2026-05-05 20:54 38.06414 24.26196 10610 ft 341 kts 79°
2026-05-05 20:54 38.07149 24.29083 10779 ft 350 kts 56°
2026-05-05 20:54 38.08768 24.31386 11204 ft 353 kts 34°
2026-05-05 20:54 38.10973 24.32712 11756 ft 353 kts 12°
2026-05-05 20:55 38.13412 24.32804 12344 ft 355 kts 349°
2026-05-05 20:55 38.15814 24.32008 12969 ft 358 kts 345°
2026-05-05 20:55 38.18220 24.31131 13617 ft 361 kts 344°
2026-05-05 20:55 38.20647 24.30234 14183 ft 364 kts 344°
2026-05-05 20:56 38.23085 24.29332 14721 ft 366 kts 343°
2026-05-05 20:56 38.25539 24.28427 15255 ft 368 kts 343°
2026-05-05 20:56 38.28005 24.27524 15778 ft 370 kts 343°
2026-05-05 20:56 38.30485 24.26620 16317 ft 372 kts 343°
2026-05-05 20:57 38.32981 24.25711 16866 ft 374 kts 343°
2026-05-05 20:57 38.35487 24.24800 17421 ft 375 kts 343°
2026-05-05 20:57 38.38003 24.23883 17976 ft 377 kts 343°
2026-05-05 20:57 38.40531 24.22961 18499 ft 379 kts 342°
2026-05-05 20:58 38.43081 24.22030 18964 ft 381 kts 342°
2026-05-05 20:58 38.45633 24.21095 19436 ft 383 kts 342°
2026-05-05 20:58 38.48204 24.20154 19908 ft 385 kts 342°
2026-05-05 20:58 38.50781 24.19208 20344 ft 388 kts 342°
2026-05-05 20:59 38.53382 24.18254 20780 ft 390 kts 342°
2026-05-05 20:59 38.55999 24.17294 21255 ft 391 kts 342°
2026-05-05 20:59 38.58616 24.16335 21682 ft 393 kts 342°
2026-05-05 20:59 38.61254 24.15370 22080 ft 395 kts 342°
2026-05-05 21:00 38.63901 24.14399 22470 ft 397 kts 342°
2026-05-05 21:00 38.66561 24.13419 22870 ft 399 kts 342°
2026-05-05 21:00 38.69235 24.12433 23245 ft 400 kts 342°
2026-05-05 21:00 38.71875 24.11460 23614 ft 402 kts 342°
2026-05-05 21:01 38.74583 24.10464 23927 ft 404 kts 342°
2026-05-05 21:01 38.77293 24.09469 24246 ft 406 kts 342°
2026-05-05 21:01 38.80022 24.08464 24570 ft 408 kts 342°
2026-05-05 21:01 38.82749 24.07456 24905 ft 409 kts 342°
2026-05-05 21:02 38.85489 24.06440 25205 ft 410 kts 342°
2026-05-05 21:02 38.88236 24.05422 25528 ft 412 kts 342°
2026-05-05 21:02 38.90985 24.04403 25966 ft 410 kts 342°
2026-05-05 21:02 38.93725 24.03386 26427 ft 409 kts 342°
2026-05-05 21:03 38.96450 24.02375 26898 ft 407 kts 342°
2026-05-05 21:03 38.99170 24.01368 27364 ft 405 kts 342°
2026-05-05 21:03 39.01877 24.00364 27846 ft 404 kts 342°
2026-05-05 21:03 39.04569 23.99362 28325 ft 402 kts 341°
2026-05-05 21:04 39.07218 23.98372 28787 ft 400 kts 341°
2026-05-05 21:04 39.09889 23.97374 29289 ft 399 kts 341°
2026-05-05 21:04 39.12551 23.96380 29779 ft 397 kts 341°
2026-05-05 21:04 39.15193 23.95396 30239 ft 395 kts 341°
2026-05-05 21:05 39.17828 23.94415 30679 ft 393 kts 341°
2026-05-05 21:05 39.20447 23.93441 31145 ft 390 kts 341°
2026-05-05 21:05 39.23043 23.92472 31599 ft 387 kts 341°
2026-05-05 21:05 39.24757 23.91830 31928 ft 385 kts 341°
2026-05-05 21:06 39.27319 23.90869 32414 ft 382 kts 341°
2026-05-05 21:06 39.29863 23.89912 32880 ft 380 kts 341°
2026-05-05 21:06 39.32391 23.88963 33346 ft 377 kts 340°
2026-05-05 21:06 39.34909 23.88020 33813 ft 375 kts 340°
2026-05-05 21:07 39.37412 23.87084 34005 ft 374 kts 340°
2026-05-05 21:07 39.39928 23.86141 34056 ft 380 kts 340°
2026-05-05 21:07 39.45095 23.84193 34052 ft 390 kts 340°
2026-05-05 21:08 39.50345 23.82203 34053 ft 395 kts 340°
2026-05-05 21:08 39.55627 23.80209 34056 ft 396 kts 341°
2026-05-05 21:09 39.60917 23.78217 34048 ft 396 kts 341°
2026-05-05 21:09 39.66210 23.76214 34057 ft 396 kts 340°
2026-05-05 21:10 39.71508 23.74205 34046 ft 397 kts 341°
2026-05-05 21:10 39.76776 23.72206 34052 ft 397 kts 341°
2026-05-05 21:11 39.82116 23.70180 34062 ft 397 kts 341°
2026-05-05 21:11 39.87398 23.68165 34064 ft 397 kts 340°
2026-05-05 21:12 39.92705 23.66134 34068 ft 398 kts 341°
2026-05-05 21:12 39.98027 23.64093 34053 ft 400 kts 341°
2026-05-05 21:13 40.03375 23.62047 34043 ft 401 kts 341°
2026-05-05 21:13 40.08729 23.59994 34040 ft 402 kts 341°
2026-05-05 21:14 40.14099 23.57937 34071 ft 402 kts 341°
2026-05-05 21:14 40.19485 23.55864 34054 ft 403 kts 341°
2026-05-05 21:15 40.24873 23.53785 34053 ft 404 kts 341°
2026-05-05 21:15 40.30237 23.51713 34057 ft 404 kts 341°
2026-05-05 21:16 40.35645 23.49628 34062 ft 405 kts 341°
2026-05-05 21:16 40.41053 23.47536 34068 ft 405 kts 341°
2026-05-05 21:17 40.46460 23.45432 34071 ft 405 kts 341°
2026-05-05 21:17 40.51861 23.43326 34071 ft 405 kts 341°
2026-05-05 21:18 40.57262 23.41228 34061 ft 405 kts 340°
2026-05-05 21:18 40.62668 23.39120 34054 ft 405 kts 341°
2026-05-05 21:19 40.68073 23.37004 34049 ft 405 kts 340°
2026-05-05 21:19 40.73476 23.34890 34042 ft 405 kts 341°
2026-05-05 21:20 40.78890 23.32776 34053 ft 406 kts 341°
2026-05-05 21:20 40.84266 23.30665 34040 ft 406 kts 341°
2026-05-05 21:21 40.89692 23.28526 34040 ft 407 kts 341°
2026-05-05 21:21 40.95128 23.26382 34040 ft 408 kts 341°
2026-05-05 21:22 41.00573 23.24237 34042 ft 408 kts 341°
2026-05-05 21:22 41.06016 23.22087 34061 ft 409 kts 341°
2026-05-05 21:23 41.11479 23.19921 34052 ft 410 kts 341°
2026-05-05 21:23 41.16942 23.17752 34055 ft 410 kts 341°
2026-05-05 21:24 41.22414 23.15582 34055 ft 410 kts 341°
2026-05-05 21:24 41.27894 23.13402 34067 ft 411 kts 341°
2026-05-05 21:25 41.33376 23.11216 34068 ft 412 kts 341°
2026-05-05 21:25 41.38830 23.09034 34061 ft 412 kts 340°
2026-05-05 21:26 41.44319 23.06826 34072 ft 411 kts 340°
2026-05-05 21:26 41.49806 23.04628 34057 ft 412 kts 341°
2026-05-05 21:27 41.55306 23.02434 34072 ft 413 kts 341°
2026-05-05 21:27 41.60803 23.00217 34063 ft 413 kts 341°
2026-05-05 21:28 41.66267 22.98015 34070 ft 412 kts 341°
2026-05-05 21:28 41.71767 22.95792 34064 ft 413 kts 341°
2026-05-05 21:29 41.77273 22.93561 34063 ft 413 kts 341°
2026-05-05 21:29 41.82781 22.91328 34060 ft 414 kts 341°
2026-05-05 21:30 41.88296 22.89088 34068 ft 414 kts 341°
2026-05-05 21:30 41.93817 22.86842 34072 ft 414 kts 341°
2026-05-05 21:31 41.99341 22.84594 34067 ft 415 kts 341°
2026-05-05 21:31 42.04860 22.82340 34065 ft 415 kts 341°
2026-05-05 21:32 42.10382 22.80076 34063 ft 415 kts 341°
2026-05-05 21:32 42.15876 22.77840 34053 ft 415 kts 341°
2026-05-05 21:33 42.21411 22.75572 34057 ft 416 kts 341°
2026-05-05 21:33 42.26954 22.73286 34054 ft 416 kts 341°
2026-05-05 21:34 42.32495 22.70997 34072 ft 417 kts 341°
2026-05-05 21:34 42.38045 22.68699 34068 ft 417 kts 341°
2026-05-05 21:35 42.43598 22.66410 34071 ft 417 kts 341°
2026-05-05 21:35 42.49158 22.64119 34061 ft 418 kts 341°
2026-05-05 21:36 42.54717 22.61816 34065 ft 418 kts 341°
2026-05-05 21:36 42.60278 22.59496 34069 ft 418 kts 341°
2026-05-05 21:37 42.65838 22.57170 34076 ft 418 kts 341°
2026-05-05 21:37 42.71400 22.54846 34079 ft 418 kts 341°
2026-05-05 21:38 42.76958 22.52521 34074 ft 418 kts 341°
2026-05-05 21:38 42.82506 22.50110 34059 ft 417 kts 335°
2026-05-05 21:39 42.87425 22.46034 34059 ft 414 kts 319°
2026-05-05 21:39 42.91764 22.40860 34048 ft 415 kts 319°
2026-05-05 21:40 42.96096 22.35716 34056 ft 415 kts 318°
2026-05-05 21:40 43.00456 22.30535 34042 ft 416 kts 318°
2026-05-05 21:41 43.04823 22.25331 34030 ft 417 kts 318°
2026-05-05 21:41 43.06184 22.23706 34032 ft 417 kts 318°